Regional Weather Roundup
Issued by NWS Sioux Falls, SD

Home | Current Version | Previous Version | Text Only | Print | Product List | Glossary On
Versions: 1 2 3 4 5 6 7 8 9 10 11 12 13 14 15 16 17 18 19 20 21 22 23 24 25 26 27 28 29 30 31 32 33 34 35 36 37 38 39 40 41 42 43 44 45 46 47 48 49 50
000
ASUS43 KFSD 302310
RWRFSD

WEATHER ROUNDUP FOR SE SOUTH DAKOTA/SW MINNESOTA/NW IOWA
NATIONAL WEATHER SERVICE SIOUX FALLS SD
600 PM CDT SAT JUL 30 2016

NOTE: "FAIR" INDICATES FEW OR NO CLOUDS BELOW 12,000 FEET WITH NO
SIGNIFICANT WEATHER AND OR OBSTRUCTIONS TO VISIBILITY.


SDZ038>040-050-052>070-310000-
SOUTHEAST SOUTH DAKOTA

CITY           SKY/WX    TMP DP  RH WIND       PRES   REMARKS
BROOKINGS      SUNNY     78  59  51 SE10      29.96F
CHAMBERLAIN    MOSUNNY   87  68  53 SE14G20   29.87S
HURON          SUNNY     83  59  44 S12       29.89F
MADISON        FAIR      75  59  57 S12       29.97S
MITCHELL       PTSUNNY   82  62  50 SE15      29.91S
SIOUX FALLS    MOSUNNY   79  57  46 SE8       29.95F
WINNER         FAIR      88  64  44 S15       29.87F
YANKTON        MOSUNNY   81  63  54 SE10      29.92S
$$

MNZ071-072-080-081-089-090-097-098-310000-
SOUTHWEST MINNESOTA

CITY           SKY/WX    TMP DP  RH WIND       PRES   REMARKS
FAIRMONT       MOSUNNY   77  61  57 SE6       29.98S
JACKSON        SUNNY     77  59  53 SE7       29.99F
LUVERNE        MOSUNNY   77  55  47 SE6       29.98S
MARSHALL       SUNNY     79  58  48 S10       29.97S
MONTEVIDEO     SUNNY     79  55  44 S7        29.99S
REDWOOD FALLS  SUNNY     80  53  39 S9        29.97S
TRACY          SUNNY     79  58  48 S7        29.98S
WINDOM         MOSUNNY   79  57  47 SE7       29.98S
WORTHINGTON    SUNNY     77  60  55 S7        29.99F
$$

IAZ001>003-012>014-020>022-031-032-NEZ013-014-SDZ071-310000-
NORTHWEST IOWA

CITY           SKY/WX    TMP DP  RH WIND       PRES   REMARKS
CHEROKEE       MOSUNNY   80  61  51 SE7       29.97S
DENISON        MOSUNNY   79  64  61 CALM      29.95S
ESTHERVILLE    SUNNY     75  64  68 S5        29.98F
LE MARS        SUNNY     81  61  50 SE9       29.96F
SHELDON        MOSUNNY   79  59  50 S10       29.96F
SIOUX CITY     SUNNY     79  62  56 S7        29.95F
SPENCER        MOSUNNY   80  59  48 S7        29.98F
STORM LAKE     SUNNY     79  64  61 S7        29.99S
$$

ABBREVIATIONS USED IN REMARKS
   TC - TEMPERATURE IN CELSIUS
  WCI - WIND CHILL INDEX
   HX - HEAT INDEX
  VSB - VISIBILITY





USA.gov is the U.S. government's official web portal to all federal, state and local government web resources and services.